TimeCDT,TemperatureF,Dew PointF,Humidity,Sea Level PressureIn,VisibilityMPH,Wind Direction,Wind SpeedMPH,Gust SpeedMPH,PrecipitationIn,Events,Conditions,WindDirDegrees,DateUTC
12:58 AM,73.8,71.6,93,30.09,10.0,NW,2.3,-,N/A,,Clear,310,2013-09-06 05:58:00
1:58 AM,74.1,70.7,89,30.08,10.0,NW,4.6,-,N/A,,Clear,310,2013-09-06 06:58:00
2:58 AM,73.2,69.6,88,30.06,10.0,NNW,3.5,-,N/A,,Clear,340,2013-09-06 07:58:00
3:58 AM,73.9,68.4,83,30.05,10.0,NE,1.2,-,N/A,,Clear,40,2013-09-06 08:58:00
4:58 AM,72.1,67.8,86,30.06,10.0,North,2.3,-,N/A,,Clear,10,2013-09-06 09:58:00
5:58 AM,72.1,67.1,84,30.07,10.0,North,4.6,-,N/A,,Clear,10,2013-09-06 10:58:00
6:58 AM,72.5,67.5,84,30.09,10.0,North,2.3,-,N/A,,Partly Cloudy,360,2013-09-06 11:58:00
7:58 AM,75.2,68.7,80,30.09,10.0,NE,2.3,-,N/A,,Clear,50,2013-09-06 12:58:00
8:58 AM,79.2,69.3,72,30.10,10.0,NE,4.6,-,N/A,,Clear,40,2013-09-06 13:58:00
9:58 AM,83.1,70.0,64,30.11,10.0,Variable,3.5,-,N/A,,Clear,0,2013-09-06 14:58:00
10:58 AM,86.9,68.0,53,30.11,10.0,Variable,4.6,-,N/A,,Clear,0,2013-09-06 15:58:00
11:58 AM,88.2,66.2,48,30.09,10.0,WSW,5.8,-,N/A,,Partly Cloudy,240,2013-09-06 16:58:00
12:58 PM,88.2,67.6,50,30.08,10.0,West,8.1,-,N/A,,Partly Cloudy,280,2013-09-06 17:58:00
1:58 PM,89.2,68.4,50,30.06,10.0,NW,6.9,-,N/A,,Clear,310,2013-09-06 18:58:00
2:58 PM,90.3,68.5,49,30.03,10.0,West,3.5,-,N/A,,Partly Cloudy,260,2013-09-06 19:58:00
3:58 PM,90.3,69.1,49,30.01,10.0,North,8.1,-,N/A,,Partly Cloudy,350,2013-09-06 20:58:00
4:58 PM,88.5,66.6,48,30.01,10.0,Calm,Calm,-,N/A,,Clear,0,2013-09-06 21:58:00
5:58 PM,88.0,67.3,50,30.01,10.0,NW,4.6,-,N/A,,Clear,320,2013-09-06 22:58:00
6:58 PM,82.9,69.8,64,30.02,10.0,NNW,5.8,-,N/A,,Clear,330,2013-09-06 23:58:00
7:58 PM,81.3,70.2,69,30.03,10.0,NNW,4.6,-,N/A,,Clear,330,2013-09-07 00:58:00
8:58 PM,77.9,70.3,77,30.04,10.0,Calm,Calm,-,N/A,,Clear,0,2013-09-07 01:58:00
9:58 PM,75.9,70.7,84,30.03,10.0,NNW,2.3,-,N/A,,Clear,330,2013-09-07 02:58:00
10:58 PM,77.0,70.7,81,30.04,10.0,NNE,3.5,-,N/A,,Clear,20,2013-09-07 03:58:00
11:58 PM,74.5,70.5,87,30.03,10.0,NNE,4.6,-,N/A,,Clear,30,2013-09-07 04:58:00